This demonstration page uses our WeatherBlox Daily Observations layout. Learn more.

Left ArrowRight Arrow

34.16533, -84.80231

Hourly Observations for October 29, 2019

Temp ( °F °C ) Dew Point ( °F °C ) Humidity (%) Winds ( mph kmh ) Pressure ( in mb ) Visibility ( mi km ) Precip ( " mm )
12:53 am 00:53 Clear 53 11.7 51 10.6 93 93 Calm 30.09 1019 10 16 0.00 0.00
1:53 am 01:53 Clear 52 11.1 50 10 93 93 Calm 30.09 1019 10 16 0.00 0.00
2:53 am 02:53 Clear 52 11.1 49 9.4 89 89 Calm 30.09 1019 9 14 0.00 0.00
3:53 am 03:53 Clear 52 11.1 50 10 93 93 Calm 30.09 1019 10 16 0.00 0.00
4:53 am 04:53 Clear 52 11.1 50 10 93 93 Calm 30.09 1019 10 16 0.00 0.00
5:53 am 05:53 Clear 52 11.1 50 10 93 93 Calm 30.09 1019 10 16 0.00 0.00
6:53 am 06:53 Clear 57 13.9 54 12.2 90 90 E 5 7 30.09 1019 10 16 0.00 0.00
7:53 am 07:53 Clear 56 13.3 53 11.7 90 90 Calm 30.11 1020 10 16 0.00 0.00
8:53 am 08:53 Mostly Cloudy 59 15 56 13.3 90 90 VRB 3 6 30.13 1020 10 16 0.00 0.00
9:53 am 09:53 Cloudy 62 16.7 59 15 90 90 VRB 3 6 30.15 1021 10 16 0.00 0.00
10:53 am 10:53 Cloudy 64 17.8 59 15 84 84 ESE 3 6 30.16 1021 10 16 0.00 0.00
11:53 am 11:53 Cloudy 69 20.6 60 15.6 73 73 ENE 6 9 30.15 1021 10 16 0.00 0.00
12:53 pm 12:53 Partly Cloudy 74 23.3 60 15.6 62 62 ESE 8 13 30.14 1021 10 16 0.00 0.00
1:53 pm 13:53 Partly Cloudy 76 24.4 61 16.1 60 60 VRB 6 9 30.10 1019 10 16 0.00 0.00
2:53 pm 14:53 Sunny 78 25.6 61 16.1 56 56 SE 8 13 30.09 1019 10 16 0.00 0.00
3:53 pm 15:53 Sunny 77 25 62 16.7 60 60 SE 9 15 30.09 1019 10 16 0.00 0.00
4:53 pm 16:53 Sunny 76 24.4 62 16.7 62 62 SSE 6 9 30.10 1019 10 16 0.00 0.00
5:53 pm 17:53 Sunny 74 23.3 62 16.7 67 67 SE 3 6 30.11 1020 10 16 0.00 0.00
6:53 pm 18:53 Cloudy 71 21.7 62 16.7 73 73 SE 3 6 30.11 1020 10 16 0.00 0.00
7:53 pm 19:53 Clear 70 21.1 62 16.7 76 76 Calm 30.11 1020 10 16 0.00 0.00
8:16 pm 20:16 Mostly Cloudy 70 21.1 62 16.7 76 76 SE 3 6 30.13 1020 10 16 0.00 0.00
8:53 pm 20:53 Cloudy 70 21.1 62 16.7 76 76 E 3 6 30.12 1020 10 16 0.00 0.00
9:53 pm 21:53 Cloudy 69 20.6 62 16.7 78 78 E 3 6 30.13 1020 10 16 0.00 0.00
10:00 pm 22:00 Cloudy 69 20.6 62 16.7 78 78 E 3 6 30.14 1021 10 16 0.00 0.00
10:12 pm 22:12 Cloudy 69 20.6 62 16.7 78 78 VRB 3 6 30.14 1021 10 16 0.00 0.00
10:53 pm 22:53 Cloudy 69 20.6 63 17.2 81 81 E 6 9 30.13 1020 10 16 0.00 0.00
11:05 pm 23:05 Cloudy 69 20.6 63 17.2 81 81 E 6 9 30.14 1021 10 16 0.00 0.00

Powered by AerisWeather